Powrót do katalogu

NADEZHDA 5

AktywnyŁącznośćPO
NORAD 25567·PAYLOAD·🇷🇺 Russia

Wystrzelony Dec 10, 1998 z Plesetsk Cosmodrome

Loading…

Następne Przeloty (najbliższe 24 godziny)

TLE

ŚwieżeSource: Space-Track

Epoka: Sep 14, 2026, 07:45 UTC

1 25567U 98072A   26257.32297877  .00000048  00000-0  36626-4 0  9997
2 25567  82.9504  22.2517 0025004 217.4883 170.9253 13.72087295389896

Śledź NADEZHDA 5 w czasie rzeczywistym z AllMySat

Download on the App Store